This is the latest recevied weather packets stored in our database for station/object K1RFS. If no packets are shown the sender has not sent any weather packets the latest 1 day(s).
| Time | Temp. | Humidity | Pressure | Rain* | Wind** | Luminosity | Snow |
|---|---|---|---|---|---|---|---|
| 1778042721 | 9.44° C | 60% | 995.7 hPa | 0 mm | - | 0 W/m² | - |
| 1778042418 | 10° C | 59% | 995.6 hPa | 0 mm | - | 0 W/m² | - |
| 1778042115 | 10° C | 60% | 995.4 hPa | 0 mm | - | 0 W/m² | - |
| 1778041512 | 10° C | 60% | 995.4 hPa | 0 mm | - | 0 W/m² | - |
| 1778040908 | 10° C | 61% | 995.4 hPa | 0 mm | - | 0 W/m² | - |
| 1778039695 | 10° C | 60% | 995.4 hPa | 0 mm | - | 0 W/m² | - |
| 1778039089 | 10.56° C | 58% | 995.4 hPa | 0 mm | - | 0 W/m² | - |
| 1778038786 | 10.56° C | 58% | 995.3 hPa | 0 mm | - | 0 W/m² | - |
| 1778038180 | 11.11° C | 56% | 995.1 hPa | 0 mm | - | 0 W/m² | - |
| 1778037877 | 11.11° C | 55% | 995.2 hPa | 0 mm | - | 0 W/m² | - |
| 1778037574 | 11.11° C | 55% | 995.3 hPa | 0 mm | - | 0 W/m² | - |
| 1778037271 | 11.67° C | 55% | 995.1 hPa | 0 mm | - | 0 W/m² | - |
| 1778036969 | 11.67° C | 55% | 995.2 hPa | 0 mm | - | 0 W/m² | - |
| 1778036363 | 11.67° C | 55% | 995.1 hPa | 0 mm | - | 0 W/m² | - |
| 1778036060 | 11.67° C | 54% | 995.2 hPa | 0 mm | - | 0 W/m² | - |
| 1778035454 | 12.22° C | 53% | 995 hPa | 0 mm | - | 0 W/m² | - |
| 1778035150 | 12.22° C | 53% | 995.1 hPa | 0 mm | - | 1 W/m² | - |
| 1778034847 | 12.22° C | 52% | 994.9 hPa | 0 mm | - | 1 W/m² | - |
| 1778034241 | 12.78° C | 51% | 994.8 hPa | 0 mm | - | 4 W/m² | - |
| 1778033939 | 12.78° C | 51% | 994.5 hPa | 0 mm | - | 5 W/m² | - |
| 1778033635 | 12.78° C | 50% | 994.5 hPa | 0 mm | - | 8 W/m² | - |
| 1778033332 | 13.33° C | 50% | 994.5 hPa | 0 mm | - | 10 W/m² | - |
| 1778032425 | 13.89° C | 48% | 994.8 hPa | 0 mm | - | 38 W/m² | - |
| 1778031818 | 14.44° C | 46% | 994.6 hPa | 0 mm | - | 56 W/m² | - |
| 1778031514 | 14.44° C | 46% | 994.5 hPa | 0 mm | - | 64 W/m² | - |
* Rain latest hour (hover to see other rain measurements)
** Current wind speed in m/s (hover to see current wind gust speed)